Location: Arborea
(39.7744°N, 8.5819°E)
Time: 00:40:24
(UTC+00:00)

Cosmos 1000 Rocket - Pass Details

Date: 06 October 2023
Orbit: 952 x 993 km, 82.9° (Epoch: 03 December)

Event Time Altitude Azimuth Distance (km) Brightness Sun altitude
Exits shadow 21:34:33 14° 319° (NW) 2,475 7.1 -48.9°
Drops below altitude 10° 21:36:05 10° 332° (NNW) 2,763 7.3 -49.1°
Sets 21:39:39 0° 352° (N) 3,714 8.1 -49.5°
